Tracking 20621 objects as of 31-Mar-2020
HD Live streaming from Space Station
objects crossing your sky now

COSMOS 1176 FUEL CORE

Track COSMOS 1176 FUEL CORE now!
10-day predictions


NORAD ID: 11971
Int'l Code: 1980-034D
Perigee: 884.8 km
Apogee: 938.8 km
Inclination: 64.8 °
Period: 103.1 minutes
Semi major axis: 7282 km
RCS: 0.1595 m2 (medium)
Launch date: April 29, 1980
Source: Commonwealth of Independent States (former USSR) (CIS)
Launch site: TYURATAM MISSILE AND SPACE COMPLEX (TTMTR)

Note: This is SATELLITE DEBRIS
aabbcc
Your satellite tracking list
Your tracking list is empty




NASA's NSSDC Master Catalog

Two Line Element Set (TLE):
1 11971U 80034D   20090.88170694 -.00000098 +00000-0 -37793-5 0  9991
2 11971 064.8358 003.8506 0037040 204.2186 282.3218 13.96861874028632
Source of the keplerian elements: AFSPC